ProjectID,Date,Electric Generation,Electric Utility Import,Facility Electric Load
,YYYY-MM-DD,kW,kW,kW
160,2013-12-01,0.0,,0.0
160,2013-12-02,0.0,,0.0
160,2013-12-03,0.0,,0.0
160,2013-12-04,0.0,,0.0
160,2013-12-05,0.0,,0.0
160,2013-12-06,0.0,,0.0
160,2013-12-07,0.0,,0.0
160,2013-12-08,0.0,,0.0
160,2013-12-09,0.0,,0.0
160,2013-12-10,0.0,,0.0
160,2013-12-11,0.0,,0.0
160,2013-12-12,0.0,,0.0
160,2013-12-13,0.0,,0.0
160,2013-12-14,0.0,,0.0
160,2013-12-15,0.0,,0.0
160,2013-12-16,0.0,,0.0
160,2013-12-17,0.0,,0.0
160,2013-12-18,0.0,,0.0
160,2013-12-19,0.0,,0.0
160,2013-12-20,0.0,,0.0
160,2013-12-21,18.375,,18.375
160,2013-12-22,16.5,,16.5
160,2013-12-23,5.041666666666667,,5.041666666666667
160,2013-12-24,46.583333333333336,,46.583333333333336
160,2013-12-25,56.916666666666664,,56.916666666666664
160,2013-12-26,26.125,,26.125
160,2013-12-27,42.708333333333336,,42.708333333333336
160,2013-12-28,52.625,,52.625
160,2013-12-29,5.125,,5.125
160,2013-12-30,42.291666666666664,,42.291666666666664
160,2013-12-31,47.541666666666664,,47.541666666666664
160,2014-01-01,56.5,,56.5
160,2014-01-02,4.458333333333333,,4.458333333333333
160,2014-01-03,0.0,,0.0
160,2014-01-04,0.0,,0.0
160,2014-01-05,0.0,,0.0
160,2014-01-06,14.625,,14.625
160,2014-01-07,52.0,,52.0
160,2014-01-08,54.208333333333336,,54.208333333333336
160,2014-01-09,50.791666666666664,,50.791666666666664
160,2014-01-10,0.125,,0.125
160,2014-01-11,5.041666666666667,,5.041666666666667
160,2014-01-12,15.791666666666666,,15.791666666666666
160,2014-01-13,33.75,,33.75
160,2014-01-14,2.375,,2.375
160,2014-01-15,54.25,,54.25
160,2014-01-16,15.541666666666666,,15.541666666666666
160,2014-01-17,60.583333333333336,,60.583333333333336
160,2014-01-18,16.583333333333332,,16.583333333333332
160,2014-01-19,67.54166666666667,,67.54166666666667
160,2014-01-20,22.708333333333332,,22.708333333333332
160,2014-01-21,10.333333333333334,,10.333333333333334
160,2014-01-22,65.83333333333333,,65.83333333333333
160,2014-01-23,67.66666666666667,,67.66666666666667
160,2014-01-24,77.45833333333333,,77.45833333333333
160,2014-01-25,11.291666666666666,,11.291666666666666
160,2014-01-26,5.666666666666667,,5.666666666666667
160,2014-01-27,19.583333333333332,,19.583333333333332
160,2014-01-28,64.79166666666667,,64.79166666666667
160,2014-01-29,88.16666666666667,,88.16666666666667
160,2014-01-30,96.25,,96.25
160,2014-01-31,69.91666666666667,,69.91666666666667
160,2014-02-01,74.875,,74.875
160,2014-02-02,39.208333333333336,,39.208333333333336
160,2014-02-03,0.0,,0.0
160,2014-02-04,0.125,,0.125
160,2014-02-05,0.0,,0.0
160,2014-02-06,0.0,,0.0
160,2014-02-07,0.0,,0.0
160,2014-02-08,0.0,,0.0
160,2014-02-09,0.0,,0.0
160,2014-02-10,0.0,,0.0
160,2014-02-11,0.0,,0.0
160,2014-02-12,0.0,,0.0
160,2014-02-13,0.0,,0.0
160,2014-02-14,0.0,,0.0
160,2014-02-15,0.0,,0.0
160,2014-02-16,0.0,,0.0
160,2014-02-17,0.0,,0.0
160,2014-02-18,0.0,,0.0
160,2014-02-19,0.0,,0.0
160,2014-02-20,0.0,,0.0
160,2014-02-21,0.0,,0.0
160,2014-02-22,0.0,,0.0
160,2014-02-23,0.0,,0.0
160,2014-02-24,0.041666666666666664,,0.041666666666666664
160,2014-02-25,0.041666666666666664,,0.041666666666666664
160,2014-02-26,0.0,,0.0
160,2014-02-27,0.041666666666666664,,0.041666666666666664
160,2014-02-28,0.0,,0.0
160,2014-03-01,0.0,,0.0
160,2014-03-02,0.0,,0.0
160,2014-03-03,0.0,,0.0
160,2014-03-04,0.0,,0.0
160,2014-03-05,0.041666666666666664,,0.041666666666666664
160,2014-03-06,0.125,,0.125
160,2014-03-07,0.08333333333333333,,0.08333333333333333
160,2014-03-08,2.5,,2.5
160,2014-03-09,14.666666666666666,,14.666666666666666
160,2014-03-10,15.166666666666666,,15.166666666666666
160,2014-03-11,79.04166666666667,,79.04166666666667
160,2014-03-12,33.875,,33.875
160,2014-03-13,140.41666666666666,,140.41666666666666
160,2014-03-14,124.0,,124.0
160,2014-03-15,144.04166666666666,,144.04166666666666
160,2014-03-16,150.33333333333334,,150.33333333333334
160,2014-03-17,148.70833333333334,,148.70833333333334
160,2014-03-18,172.29166666666666,,172.29166666666666
160,2014-03-19,60.25,,60.25
160,2014-03-20,115.83333333333333,,115.83333333333333
160,2014-03-21,170.79166666666666,,170.79166666666666
160,2014-03-22,141.79166666666666,,141.79166666666666
160,2014-03-23,84.5,,84.5
160,2014-03-24,187.58333333333334,,187.58333333333334
160,2014-03-25,141.5,,141.5
160,2014-03-26,183.66666666666666,,183.66666666666666
160,2014-03-27,175.66666666666666,,175.66666666666666
160,2014-03-28,29.5,,29.5
160,2014-03-29,47.875,,47.875
160,2014-03-30,45.416666666666664,,45.416666666666664
160,2014-03-31,182.95833333333334,,182.95833333333334
160,2014-04-01,164.66666666666666,,164.66666666666666
160,2014-04-02,119.625,,119.625
160,2014-04-03,185.45833333333334,,185.45833333333334
160,2014-04-04,30.25,,30.25
160,2014-04-05,135.25,,135.25
160,2014-04-06,213.125,,213.125
160,2014-04-07,66.29166666666667,,66.29166666666667
160,2014-04-08,120.16666666666667,,120.16666666666667
160,2014-04-09,205.45833333333334,,205.45833333333334
160,2014-04-10,212.0,,212.0
160,2014-04-11,74.375,,74.375
160,2014-04-12,184.70833333333334,,184.70833333333334
160,2014-04-13,168.375,,168.375
160,2014-04-14,139.20833333333334,,139.20833333333334
160,2014-04-15,29.791666666666668,,29.791666666666668
160,2014-04-16,225.29166666666666,,225.29166666666666
160,2014-04-17,232.20833333333334,,232.20833333333334
160,2014-04-18,157.875,,157.875
160,2014-04-19,228.20833333333334,,228.20833333333334
160,2014-04-20,231.33333333333334,,231.33333333333334
160,2014-04-21,226.95833333333334,,226.95833333333334
160,2014-04-22,129.79166666666666,,129.79166666666666
160,2014-04-23,116.95833333333333,,116.95833333333333
160,2014-04-24,247.33333333333334,,247.33333333333334
160,2014-04-25,198.0,,198.0
160,2014-04-26,152.41666666666666,,152.41666666666666
160,2014-04-27,99.625,,99.625
160,2014-04-28,231.08333333333334,,231.08333333333334
160,2014-04-29,43.75,,43.75
160,2014-04-30,21.75,,21.75
160,2014-05-01,154.79166666666666,,154.79166666666666
160,2014-05-02,153.125,,153.125
160,2014-05-03,170.33333333333334,,170.33333333333334
160,2014-05-04,223.875,,223.875
160,2014-05-05,247.875,,247.875
160,2014-05-06,169.70833333333334,,169.70833333333334
160,2014-05-07,213.75,,213.75
160,2014-05-08,65.33333333333333,,65.33333333333333
160,2014-05-09,42.375,,42.375
160,2014-05-10,158.125,,158.125
160,2014-05-11,250.04166666666666,,250.04166666666666
160,2014-05-12,164.16666666666666,,164.16666666666666
160,2014-05-13,186.54166666666666,,186.54166666666666
160,2014-05-14,175.375,,175.375
160,2014-05-15,61.416666666666664,,61.416666666666664
160,2014-05-16,36.25,,36.25
160,2014-05-17,239.08333333333334,,239.08333333333334
160,2014-05-18,194.58333333333334,,194.58333333333334
160,2014-05-19,184.79166666666666,,184.79166666666666
160,2014-05-20,223.45833333333334,,223.45833333333334
160,2014-05-21,167.875,,167.875
160,2014-05-22,105.83333333333333,,105.83333333333333
160,2014-05-23,149.58333333333334,,149.58333333333334
160,2014-05-24,156.08333333333334,,156.08333333333334
160,2014-05-25,246.58333333333334,,246.58333333333334
160,2014-05-26,218.20833333333334,,218.20833333333334
160,2014-05-27,197.04166666666666,,197.04166666666666
160,2014-05-28,53.833333333333336,,53.833333333333336
160,2014-05-29,243.54166666666666,,243.54166666666666
160,2014-05-30,194.95833333333334,,194.95833333333334
160,2014-05-31,263.0833333333333,,263.0833333333333
160,2014-06-01,260.5833333333333,,260.5833333333333
160,2014-06-02,258.8333333333333,,258.8333333333333
160,2014-06-03,196.33333333333334,,196.33333333333334
160,2014-06-04,202.0,,202.0
160,2014-06-05,148.83333333333334,,148.83333333333334
160,2014-06-06,226.79166666666666,,226.79166666666666
160,2014-06-07,260.375,,260.375
160,2014-06-08,240.91666666666666,,240.91666666666666
160,2014-06-09,40.416666666666664,,40.416666666666664
160,2014-06-10,89.70833333333333,,89.70833333333333
160,2014-06-11,50.5,,50.5
160,2014-06-12,34.875,,34.875
160,2014-06-13,84.16666666666667,,84.16666666666667
160,2014-06-14,253.125,,253.125
160,2014-06-15,262.375,,262.375
160,2014-06-16,250.29166666666666,,250.29166666666666
160,2014-06-17,222.5,,222.5
160,2014-06-18,251.04166666666666,,251.04166666666666
160,2014-06-19,172.70833333333334,,172.70833333333334
160,2014-06-20,254.95833333333334,,254.95833333333334
160,2014-06-21,251.91666666666666,,251.91666666666666
160,2014-06-22,233.08333333333334,,233.08333333333334
160,2014-06-23,212.375,,212.375
160,2014-06-24,204.08333333333334,,204.08333333333334
160,2014-06-25,135.91666666666666,,135.91666666666666
160,2014-06-26,174.875,,174.875
160,2014-06-27,260.1666666666667,,260.1666666666667
160,2014-06-28,238.91666666666666,,238.91666666666666
160,2014-06-29,238.58333333333334,,238.58333333333334
160,2014-06-30,195.625,,195.625
160,2014-07-01,221.91666666666666,,221.91666666666666
160,2014-07-02,146.5,,146.5
160,2014-07-03,157.0,,157.0
160,2014-07-04,71.79166666666667,,71.79166666666667
160,2014-07-05,271.625,,271.625
160,2014-07-06,265.5416666666667,,265.5416666666667
160,2014-07-07,225.66666666666666,,225.66666666666666
160,2014-07-08,213.16666666666666,,213.16666666666666
160,2014-07-09,224.375,,224.375
160,2014-07-10,25.125,,25.125
160,2014-07-11,167.625,,167.625
160,2014-07-12,225.25,,225.25
160,2014-07-13,105.95833333333333,,105.95833333333333
160,2014-07-14,98.54166666666667,,98.54166666666667
160,2014-07-15,108.04166666666667,,108.04166666666667
160,2014-07-16,202.79166666666666,,202.79166666666666
160,2014-07-17,201.70833333333334,,201.70833333333334
160,2014-07-18,235.5,,235.5
160,2014-07-19,165.83333333333334,,165.83333333333334
160,2014-07-20,231.29166666666666,,231.29166666666666
160,2014-07-21,233.20833333333334,,233.20833333333334
160,2014-07-22,225.04166666666666,,225.04166666666666
160,2014-07-23,208.75,,208.75
160,2014-07-24,177.83333333333334,,177.83333333333334
160,2014-07-25,230.20833333333334,,230.20833333333334
160,2014-07-26,161.83333333333334,,161.83333333333334
160,2014-07-27,176.375,,176.375
160,2014-07-28,169.45833333333334,,169.45833333333334
160,2014-07-29,179.0,,179.0
160,2014-07-30,214.25,,214.25
160,2014-07-31,199.91666666666666,,199.91666666666666
160,2014-08-01,152.875,,152.875
160,2014-08-02,168.5,,168.5
160,2014-08-03,157.16666666666666,,157.16666666666666
160,2014-08-04,166.75,,166.75
160,2014-08-05,201.0,,201.0
160,2014-08-06,211.54166666666666,,211.54166666666666
160,2014-08-07,219.45833333333334,,219.45833333333334
160,2014-08-08,205.33333333333334,,205.33333333333334
160,2014-08-09,221.0,,221.0
160,2014-08-10,190.66666666666666,,190.66666666666666
160,2014-08-11,199.25,,199.25
160,2014-08-12,68.75,,68.75
160,2014-08-13,120.70833333333333,,120.70833333333333
160,2014-08-14,189.41666666666666,,189.41666666666666
160,2014-08-15,141.375,,141.375
160,2014-08-16,181.04166666666666,,181.04166666666666
160,2014-08-17,143.125,,143.125
160,2014-08-18,217.125,,217.125
160,2014-08-19,224.95833333333334,,224.95833333333334
160,2014-08-20,170.20833333333334,,170.20833333333334
160,2014-08-21,116.95833333333333,,116.95833333333333
160,2014-08-22,40.25,,40.25
160,2014-08-23,107.75,,107.75
160,2014-08-24,190.66666666666666,,190.66666666666666
160,2014-08-25,199.125,,199.125
160,2014-08-26,204.375,,204.375
160,2014-08-27,177.45833333333334,,177.45833333333334
160,2014-08-28,184.25,,184.25
160,2014-08-29,207.375,,207.375
160,2014-08-30,148.625,,148.625
160,2014-08-31,81.875,,81.875
160,2014-09-01,138.04166666666666,,138.04166666666666
160,2014-09-02,157.41666666666666,,157.41666666666666
160,2014-09-03,189.70833333333334,,189.70833333333334
160,2014-09-04,180.625,,180.625
160,2014-09-05,135.375,,135.375
160,2014-09-06,136.125,,136.125
160,2014-09-07,71.58333333333333,,71.58333333333333
160,2014-09-08,161.41666666666666,,161.41666666666666
160,2014-09-09,108.45833333333333,,108.45833333333333
160,2014-09-10,174.29166666666666,,174.29166666666666
160,2014-09-11,51.791666666666664,,51.791666666666664
160,2014-09-12,193.91666666666666,,193.91666666666666
160,2014-09-13,35.458333333333336,,35.458333333333336
160,2014-09-14,189.04166666666666,,189.04166666666666
160,2014-09-15,174.41666666666666,,174.41666666666666
160,2014-09-16,94.95833333333333,,94.95833333333333
160,2014-09-17,163.79166666666666,,163.79166666666666
160,2014-09-18,168.25,,168.25
160,2014-09-19,179.91666666666666,,179.91666666666666
160,2014-09-20,113.79166666666667,,113.79166666666667
160,2014-09-21,116.20833333333333,,116.20833333333333
160,2014-09-22,170.79166666666666,,170.79166666666666
160,2014-09-23,176.54166666666666,,176.54166666666666
160,2014-09-24,140.45833333333334,,140.45833333333334
160,2014-09-25,59.833333333333336,,59.833333333333336
160,2014-09-26,171.0,,171.0
160,2014-09-27,165.0,,165.0
160,2014-09-28,149.5,,149.5
160,2014-09-29,81.83333333333333,,81.83333333333333
160,2014-09-30,77.54166666666667,,77.54166666666667
160,2014-10-01,44.75,,44.75
160,2014-10-02,64.20833333333333,,64.20833333333333
160,2014-10-03,156.375,,156.375
160,2014-10-04,31.875,,31.875
160,2014-10-05,160.66666666666666,,160.66666666666666
160,2014-10-06,145.0,,145.0
160,2014-10-07,113.875,,113.875
160,2014-10-08,138.5,,138.5
160,2014-10-09,125.29166666666667,,125.29166666666667
160,2014-10-10,106.625,,106.625
160,2014-10-11,45.458333333333336,,45.458333333333336
160,2014-10-12,145.58333333333334,,145.58333333333334
160,2014-10-13,40.791666666666664,,40.791666666666664
160,2014-10-14,86.70833333333333,,86.70833333333333
160,2014-10-15,72.91666666666667,,72.91666666666667
160,2014-10-16,73.5,,73.5
160,2014-10-17,119.16666666666667,,119.16666666666667
160,2014-10-18,52.791666666666664,,52.791666666666664
160,2014-10-19,122.25,,122.25
160,2014-10-20,102.0,,102.0
160,2014-10-21,33.166666666666664,,33.166666666666664
160,2014-10-22,16.333333333333332,,16.333333333333332
160,2014-10-23,25.0,,25.0
160,2014-10-24,63.583333333333336,,63.583333333333336
160,2014-10-25,109.04166666666667,,109.04166666666667
160,2014-10-26,45.333333333333336,,45.333333333333336
160,2014-10-27,116.79166666666667,,116.79166666666667
160,2014-10-28,90.25,,90.25
160,2014-10-29,33.583333333333336,,33.583333333333336
160,2014-10-30,91.08333333333333,,91.08333333333333
160,2014-10-31,64.625,,64.625
160,2014-11-01,25.25,,25.25
160,2014-11-02,92.875,,92.875
160,2014-11-03,107.125,,107.125
160,2014-11-04,98.16666666666667,,98.16666666666667
160,2014-11-05,41.958333333333336,,41.958333333333336
160,2014-11-06,7.333333333333333,,7.333333333333333
160,2014-11-07,58.458333333333336,,58.458333333333336
160,2014-11-08,100.5,,100.5
160,2014-11-09,87.0,,87.0
160,2014-11-10,93.29166666666667,,93.29166666666667
160,2014-11-11,45.375,,45.375
160,2014-11-12,42.125,,42.125
160,2014-11-13,57.125,,57.125
160,2014-11-14,95.75,,95.75
160,2014-11-15,93.45833333333333,,93.45833333333333
160,2014-11-16,30.208333333333332,,30.208333333333332
160,2014-11-17,7.958333333333333,,7.958333333333333
160,2014-11-18,88.125,,88.125
160,2014-11-19,85.25,,85.25
160,2014-11-20,79.0,,79.0
160,2014-11-21,67.08333333333333,,67.08333333333333
160,2014-11-22,75.58333333333333,,75.58333333333333
160,2014-11-23,66.33333333333333,,66.33333333333333
160,2014-11-24,38.666666666666664,,38.666666666666664
160,2014-11-25,41.041666666666664,,41.041666666666664
160,2014-11-26,0.0,,0.0
160,2014-11-27,0.0,,0.0
160,2014-11-28,0.0,,0.0
160,2014-11-29,0.0,,0.0
160,2014-11-30,0.0,,0.0
160,2014-12-01,1.3333333333333333,,1.3333333333333333
160,2014-12-02,9.166666666666666,,9.166666666666666
160,2014-12-03,5.541666666666667,,5.541666666666667
160,2014-12-04,26.166666666666668,,26.166666666666668
160,2014-12-05,21.666666666666668,,21.666666666666668
160,2014-12-06,6.416666666666667,,6.416666666666667
160,2014-12-07,68.25,,68.25
160,2014-12-08,29.458333333333332,,29.458333333333332
160,2014-12-09,1.7916666666666667,,1.7916666666666667
160,2014-12-10,15.708333333333334,,15.708333333333334
160,2014-12-11,37.375,,37.375
160,2014-12-12,56.916666666666664,,56.916666666666664
160,2014-12-13,63.0,,63.0
160,2014-12-14,39.375,,39.375
160,2014-12-15,69.54166666666667,,69.54166666666667
160,2014-12-16,14.25,,14.25
160,2014-12-17,47.291666666666664,,47.291666666666664
160,2014-12-18,35.791666666666664,,35.791666666666664
160,2014-12-19,48.458333333333336,,48.458333333333336
160,2014-12-20,22.083333333333332,,22.083333333333332
160,2014-12-21,17.708333333333332,,17.708333333333332
160,2014-12-22,20.5,,20.5
160,2014-12-23,11.375,,11.375
160,2014-12-24,3.25,,3.25
160,2014-12-25,37.0,,37.0
160,2014-12-26,69.08333333333333,,69.08333333333333
160,2014-12-27,63.458333333333336,,63.458333333333336
160,2014-12-28,17.125,,17.125
160,2014-12-29,68.41666666666667,,68.41666666666667
160,2014-12-30,64.16666666666667,,64.16666666666667
160,2014-12-31,42.041666666666664,,42.041666666666664
160,2015-01-01,68.33333333333333,,68.33333333333333
160,2015-01-02,42.625,,42.625
160,2015-01-03,16.791666666666668,,16.791666666666668
160,2015-01-04,8.916666666666666,,8.916666666666666
160,2015-01-05,51.333333333333336,,51.333333333333336
160,2015-01-06,9.416666666666666,,9.416666666666666
160,2015-01-07,51.0,,51.0
160,2015-01-08,68.625,,68.625
160,2015-01-09,16.041666666666668,,16.041666666666668
160,2015-01-10,60.666666666666664,,60.666666666666664
160,2015-01-11,33.458333333333336,,33.458333333333336
160,2015-01-12,6.625,,6.625
160,2015-01-13,81.08333333333333,,81.08333333333333
160,2015-01-14,59.958333333333336,,59.958333333333336
160,2015-01-15,78.625,,78.625
160,2015-01-16,65.5,,65.5
160,2015-01-17,83.16666666666667,,83.16666666666667
160,2015-01-18,7.875,,7.875
160,2015-01-19,52.833333333333336,,52.833333333333336
160,2015-01-20,51.0,,51.0
160,2015-01-21,67.125,,67.125
160,2015-01-22,74.20833333333333,,74.20833333333333
160,2015-01-23,88.625,,88.625
160,2015-01-24,0.0,,0.0
160,2015-01-25,0.875,,0.875
160,2015-01-26,0.08333333333333333,,0.08333333333333333
160,2015-01-27,0.2916666666666667,,0.2916666666666667
160,2015-01-28,5.5,,5.5
160,2015-01-29,5.791666666666667,,5.791666666666667
160,2015-01-30,0.08333333333333333,,0.08333333333333333
160,2015-01-31,20.0,,20.0
160,2015-02-01,42.458333333333336,,42.458333333333336
160,2015-02-02,0.0,,0.0
160,2015-02-03,0.0,,0.0
160,2015-02-04,0.0,,0.0
160,2015-02-05,0.0,,0.0
160,2015-02-06,0.25,,0.25
160,2015-02-07,0.041666666666666664,,0.041666666666666664
160,2015-02-08,0.0,,0.0
160,2015-02-09,0.0,,0.0
160,2015-02-10,0.0,,0.0
160,2015-02-11,0.0,,0.0
160,2015-02-12,0.0,,0.0
160,2015-02-13,0.0,,0.0
160,2015-02-14,0.0,,0.0
160,2015-02-15,0.0,,0.0
160,2015-02-16,0.0,,0.0
160,2015-02-17,0.0,,0.0
160,2015-02-18,0.0,,0.0
160,2015-02-19,0.0,,0.0
160,2015-02-20,0.041666666666666664,,0.041666666666666664
160,2015-02-21,0.0,,0.0
160,2015-02-22,0.0,,0.0
160,2015-02-23,0.0,,0.0
160,2015-02-24,0.0,,0.0
160,2015-02-25,0.0,,0.0
160,2015-02-26,0.0,,0.0
160,2015-02-27,0.0,,0.0
160,2015-02-28,0.0,,0.0
160,2015-03-01,0.0,,0.0
160,2015-03-02,0.0,,0.0
160,2015-03-03,0.0,,0.0
160,2015-03-04,0.0,,0.0
160,2015-03-05,0.0,,0.0
160,2015-03-06,0.0,,0.0
160,2015-03-07,0.041666666666666664,,0.041666666666666664
160,2015-03-08,0.25,,0.25
160,2015-03-09,4.125,,4.125
160,2015-03-10,5.208333333333333,,5.208333333333333
160,2015-03-11,42.291666666666664,,42.291666666666664
160,2015-03-12,104.70833333333333,,104.70833333333333
160,2015-03-13,103.33333333333333,,103.33333333333333
160,2015-03-14,26.625,,26.625
160,2015-03-15,34.5,,34.5
160,2015-03-16,76.33333333333333,,76.33333333333333
160,2015-03-17,54.916666666666664,,54.916666666666664
160,2015-03-18,103.66666666666667,,103.66666666666667
160,2015-03-19,122.75,,122.75
160,2015-03-20,31.208333333333332,,31.208333333333332
160,2015-03-21,55.041666666666664,,55.041666666666664
160,2015-03-22,122.29166666666667,,122.29166666666667
160,2015-03-23,127.20833333333333,,127.20833333333333
160,2015-03-24,155.79166666666666,,155.79166666666666
160,2015-03-25,71.625,,71.625
160,2015-03-26,32.958333333333336,,32.958333333333336
160,2015-03-27,39.166666666666664,,39.166666666666664
160,2015-03-28,53.958333333333336,,53.958333333333336
160,2015-03-29,132.16666666666666,,132.16666666666666
160,2015-03-30,63.791666666666664,,63.791666666666664
160,2015-03-31,60.041666666666664,,60.041666666666664
160,2015-04-01,201.25,,201.25
160,2015-04-02,185.33333333333334,,185.33333333333334
160,2015-04-03,44.333333333333336,,44.333333333333336
160,2015-04-04,176.91666666666666,,176.91666666666666
160,2015-04-05,127.79166666666667,,127.79166666666667
160,2015-04-06,180.70833333333334,,180.70833333333334
160,2015-04-07,41.708333333333336,,41.708333333333336
160,2015-04-08,38.625,,38.625
160,2015-04-09,38.958333333333336,,38.958333333333336
160,2015-04-10,54.875,,54.875
160,2015-04-11,171.79166666666666,,171.79166666666666
160,2015-04-12,216.0,,216.0
160,2015-04-13,192.70833333333334,,192.70833333333334
160,2015-04-14,103.58333333333333,,103.58333333333333
160,2015-04-15,202.25,,202.25
160,2015-04-16,207.41666666666666,,207.41666666666666
160,2015-04-17,94.08333333333333,,94.08333333333333
160,2015-04-18,216.16666666666666,,216.16666666666666
160,2015-04-19,210.54166666666666,,210.54166666666666
160,2015-04-20,31.75,,31.75
160,2015-04-21,183.54166666666666,,183.54166666666666
160,2015-04-22,103.0,,103.0
160,2015-04-23,128.5,,128.5
160,2015-04-24,91.08333333333333,,91.08333333333333
160,2015-04-25,240.375,,240.375
160,2015-04-26,162.16666666666666,,162.16666666666666
160,2015-04-27,136.91666666666666,,136.91666666666666
160,2015-04-28,217.20833333333334,,217.20833333333334
160,2015-04-29,238.125,,238.125
160,2015-04-30,216.125,,216.125
160,2015-05-01,147.83333333333334,,147.83333333333334
160,2015-05-02,221.91666666666666,,221.91666666666666
160,2015-05-03,179.625,,179.625
160,2015-05-04,222.125,,222.125
160,2015-05-05,201.54166666666666,,201.54166666666666
160,2015-05-06,103.5,,103.5
160,2015-05-07,233.16666666666666,,233.16666666666666
160,2015-05-08,224.66666666666666,,224.66666666666666
160,2015-05-09,167.0,,167.0
160,2015-05-10,226.95833333333334,,226.95833333333334
160,2015-05-11,197.5,,197.5
160,2015-05-12,166.04166666666666,,166.04166666666666
160,2015-05-13,160.25,,160.25
160,2015-05-14,236.66666666666666,,236.66666666666666
160,2015-05-15,171.95833333333334,,171.95833333333334
160,2015-05-16,150.41666666666666,,150.41666666666666
160,2015-05-17,206.83333333333334,,206.83333333333334
160,2015-05-18,69.66666666666667,,69.66666666666667
160,2015-05-19,165.91666666666666,,165.91666666666666
160,2015-05-20,186.20833333333334,,186.20833333333334
160,2015-05-21,177.75,,177.75
160,2015-05-22,237.58333333333334,,237.58333333333334
160,2015-05-23,261.375,,261.375
160,2015-05-24,235.66666666666666,,235.66666666666666
160,2015-05-25,228.33333333333334,,228.33333333333334
160,2015-05-26,181.66666666666666,,181.66666666666666
160,2015-05-27,178.41666666666666,,178.41666666666666
160,2015-05-28,220.16666666666666,,220.16666666666666
160,2015-05-29,242.91666666666666,,242.91666666666666
160,2015-05-30,207.75,,207.75
160,2015-05-31,78.625,,78.625
160,2015-06-01,45.375,,45.375
160,2015-06-02,68.95833333333333,,68.95833333333333
160,2015-06-03,247.95833333333334,,247.95833333333334
160,2015-06-04,204.91666666666666,,204.91666666666666
160,2015-06-05,199.5,,199.5
160,2015-06-06,215.45833333333334,,215.45833333333334
160,2015-06-07,251.79166666666666,,251.79166666666666
160,2015-06-08,148.79166666666666,,148.79166666666666
160,2015-06-09,183.95833333333334,,183.95833333333334
160,2015-06-10,250.66666666666666,,250.66666666666666
160,2015-06-11,173.70833333333334,,173.70833333333334